Orbital Elements at Epoch 2459000.5 (2020-May-31.0) TDB
Reference: JPL 27 (heliocentric ecliptic J2000)
Element | Value | Uncertainty (1-sigma) | Units |
e | .08359586435156023 | 4.0063e-08 | |
a | 2.364657661349783 | 8.6441e-09 | au |
q | 2.166982060253709 | 9.5609e-08 | au |
i | 7.561677791155895 | 4.6867e-06 | deg |
node | 60.01144769645203 | 2.7138e-05 | deg |
peri | 15.94184831054792 | 3.7114e-05 | deg |
M | 41.44213666972604 | 2.3746e-05 | deg |
tp | 2458847.605987610076 (2019-Dec-30.10598761) | 8.768e-05 | TDB |
period | 1328.161356617049 3.64 | 7.2827e-06 1.994e-08 | d yr |
n | .2710514036614901 | 1.4863e-09 | deg/d |
Q | 2.562333262445857 | 9.3667e-09 | au |
|
| | Orbit Determination Parameters
Additional Information
|